| time (UTC) | temp F | wind direction | speed MPH | gust MPH | rain 1hr in | rain 24hr in | rain mn in | humidity % | barometer mb |
| 20260508060004 | 56 | 225 | 0.0 | 3.0 | 0.00 | 0.00 | 0.00 | 61 | 1013.0 |
| 20260508055503 | 56 | 208 | 0.0 | 2.0 | 0.00 | 0.00 | 0.00 | 62 | 1012.9 |
| 20260508055003 | 56 | 215 | 0.0 | 3.0 | 0.00 | 0.00 | 0.00 | 62 | 1013.0 |
| 20260508054717 | 56 | 236 | 0.0 | 3.0 | 0.00 | 0.00 | 0.00 | 63 | 1012.9 |
| 20260508054003 | 56 | 229 | 0.0 | 2.0 | 0.00 | 0.00 | 0.00 | 63 | 1013.0 |
| 20260508053503 | 56 | 227 | 0.0 | 3.0 | 0.00 | 0.00 | 0.00 | 63 | 1013.0 |
| 20260508053003 | 56 | 217 | 0.0 | 3.0 | 0.00 | 0.00 | 0.00 | 63 | 1013.0 |
| 20260508052503 | 56 | 214 | 0.0 | 1.0 | 0.00 | 0.00 | 0.00 | 63 | 1013.0 |
| 20260508052003 | 55 | 227 | 0.0 | 1.0 | 0.00 | 0.00 | 0.00 | 63 | 1013.0 |
| 20260508051503 | 55 | 225 | 0.0 | 1.0 | 0.00 | 0.00 | 0.00 | 63 | 1013.0 |
| 20260508051003 | 55 | 231 | 0.0 | 1.0 | 0.00 | 0.00 | 0.00 | 64 | 1012.9 |
| 20260508050503 | 55 | 228 | 0.0 | 3.0 | 0.00 | 0.00 | 0.00 | 64 | 1012.9 |
| 20260508050003 | 55 | 228 | 0.0 | 3.0 | 0.00 | 0.00 | 0.00 | 64 | 1012.9 |
| 20260508045503 | 55 | 215 | 0.0 | 1.0 | 0.00 | 0.00 | 0.00 | 64 | 1012.9 |
| 20260508045003 | 55 | 123 | 0.0 | 2.0 | 0.00 | 0.00 | 0.00 | 65 | 1012.9 |
| 20260508044503 | 55 | 139 | 0.0 | 2.0 | 0.00 | 0.00 | 0.00 | 65 | 1012.9 |
| 20260508044003 | 55 | 216 | 0.0 | 1.0 | 0.00 | 0.00 | 0.00 | 65 | 1013.0 |
| 20260508043503 | 55 | 160 | 0.0 | 1.0 | 0.00 | 0.00 | 0.00 | 66 | 1012.9 |
| 20260508043003 | 54 | 176 | 0.0 | 2.0 | 0.00 | 0.00 | 0.00 | 66 | 1012.9 |
| 20260508042503 | 54 | 219 | 0.0 | 2.0 | 0.00 | 0.00 | 0.00 | 65 | 1012.8 |
| 20260508042003 | 54 | 216 | 0.0 | 2.0 | 0.00 | 0.00 | 0.00 | 66 | 1012.9 |
| 20260508041504 | 55 | 178 | 0.0 | 2.0 | 0.00 | 0.00 | 0.00 | 65 | 1012.9 |
| 20260508041217 | 55 | 180 | 0.0 | 2.0 | 0.00 | 0.00 | 0.00 | 65 | 1012.9 |
| 20260508040503 | 55 | 221 | 0.0 | 1.0 | 0.00 | 0.00 | 0.00 | 64 | 1013.0 |
| 20260508040006 | 55 | 221 | 0.0 | 1.0 | 0.00 | 0.00 | 0.00 | 64 | 1013.0 |
| 20260508035503 | 55 | 219 | 0.0 | 1.0 | 0.00 | 0.00 | 0.00 | 62 | 1012.9 |
| 20260508035003 | 55 | 181 | 0.0 | 1.0 | 0.00 | 0.00 | 0.00 | 63 | 1012.9 |
| 20260508034503 | 56 | 227 | 0.0 | 2.0 | 0.00 | 0.00 | 0.00 | 62 | 1012.9 |
| 20260508034003 | 56 | 232 | 0.0 | 3.0 | 0.00 | 0.00 | 0.00 | 62 | 1012.9 |
| 20260508033503 | 56 | 226 | 0.0 | 3.0 | 0.00 | 0.00 | 0.00 | 61 | 1012.9 |
| 20260508033003 | 56 | 0 | 0.0 | 0.0 | 0.00 | 0.00 | 0.00 | 61 | 1012.9 |
| 20260508032503 | 56 | 0 | 0.0 | 0.0 | 0.00 | 0.00 | 0.00 | 62 | 1012.9 |
| 20260508032003 | 56 | 0 | 0.0 | 0.0 | 0.00 | 0.00 | 0.00 | 62 | 1012.9 |
| 20260508031503 | 56 | 0 | 0.0 | 0.0 | 0.00 | 0.00 | 0.00 | 61 | 1012.9 |
| 20260508031004 | 56 | 224 | 0.0 | 1.0 | 0.00 | 0.00 | 0.00 | 61 | 1012.8 |
| 20260508030503 | 56 | 224 | 0.0 | 1.0 | 0.00 | 0.00 | 0.00 | 60 | 1012.9 |
| 20260508030004 | 56 | 228 | 0.0 | 1.0 | 0.00 | 0.00 | 0.00 | 61 | 1012.9 |
| 20260508025718 | 56 | 224 | 0.0 | 1.0 | 0.00 | 0.00 | 0.00 | 60 | 1012.9 |
| 20260508025003 | 57 | 211 | 0.0 | 1.0 | 0.00 | 0.00 | 0.00 | 59 | 1012.7 |
| 20260508024503 | 57 | 217 | 0.0 | 3.0 | 0.00 | 0.00 | 0.00 | 60 | 1012.7 |
| 20260508024003 | 57 | 215 | 0.0 | 3.0 | 0.00 | 0.00 | 0.00 | 59 | 1012.7 |
| 20260508023503 | 57 | 216 | 0.0 | 1.0 | 0.00 | 0.00 | 0.00 | 59 | 1012.7 |
| 20260508023003 | 57 | 216 | 0.0 | 1.0 | 0.00 | 0.00 | 0.00 | 58 | 1012.7 |
| 20260508022503 | 57 | 217 | 0.0 | 1.0 | 0.00 | 0.00 | 0.00 | 59 | 1012.6 |
| 20260508022003 | 57 | 202 | 0.0 | 1.0 | 0.00 | 0.00 | 0.00 | 59 | 1012.6 |
| 20260508021503 | 57 | 116 | 0.0 | 1.0 | 0.00 | 0.00 | 0.00 | 59 | 1012.6 |
| 20260508021003 | 57 | 211 | 0.0 | 1.0 | 0.00 | 0.00 | 0.00 | 59 | 1012.6 |
| 20260508020718 | 57 | 211 | 0.0 | 1.0 | 0.00 | 0.00 | 0.00 | 59 | 1012.6 |
| 20260508020004 | 57 | 225 | 0.0 | 1.0 | 0.00 | 0.00 | 0.00 | 59 | 1012.5 |
| 20260508015717 | 57 | 225 | 0.0 | 1.0 | 0.00 | 0.00 | 0.00 | 58 | 1012.5 |
| 20260508015003 | 58 | 0 | 0.0 | 0.0 | 0.00 | 0.00 | 0.00 | 58 | 1012.4 |
| 20260508014504 | 58 | 0 | 0.0 | 0.0 | 0.00 | 0.00 | 0.00 | 58 | 1012.4 |
| 20260508014003 | 58 | 0 | 0.0 | 0.0 | 0.00 | 0.00 | 0.00 | 57 | 1012.4 |
| 20260508013504 | 58 | 0 | 0.0 | 0.0 | 0.00 | 0.00 | 0.00 | 56 | 1012.4 |
| 20260508013003 | 59 | 216 | 0.0 | 1.0 | 0.00 | 0.00 | 0.00 | 56 | 1012.3 |
| 20260508012503 | 59 | 216 | 0.0 | 1.0 | 0.00 | 0.00 | 0.00 | 55 | 1012.2 |
| 20260508012003 | 59 | 215 | 0.0 | 1.0 | 0.00 | 0.00 | 0.00 | 55 | 1012.3 |
| 20260508011503 | 60 | 215 | 0.0 | 1.0 | 0.00 | 0.00 | 0.00 | 54 | 1012.3 |
| 20260508011003 | 60 | 0 | 0.0 | 0.0 | 0.00 | 0.00 | 0.00 | 55 | 1012.2 |
| 20260508010717 | 60 | 0 | 0.0 | 0.0 | 0.00 | 0.00 | 0.00 | 55 | 1012.2 |
| 20260508010003 | 60 | 0 | 0.0 | 0.0 | 0.00 | 0.00 | 0.00 | 55 | 1012.2 |
| 20260508005503 | 60 | 0 | 0.0 | 0.0 | 0.00 | 0.00 | 0.00 | 53 | 1012.3 |
| 20260508005003 | 60 | 163 | 0.0 | 2.0 | 0.00 | 0.00 | 0.00 | 54 | 1012.4 |
| 20260508004503 | 60 | 163 | 0.0 | 2.0 | 0.00 | 0.00 | 0.00 | 54 | 1012.3 |
| 20260508004003 | 61 | 207 | 0.0 | 1.0 | 0.00 | 0.00 | 0.00 | 54 | 1012.3 |
| 20260508003503 | 61 | 209 | 0.0 | 1.0 | 0.00 | 0.00 | 0.00 | 53 | 1012.2 |
| 20260508003004 | 61 | 242 | 0.0 | 1.0 | 0.00 | 0.00 | 0.00 | 53 | 1012.1 |
| 20260508002503 | 61 | 258 | 0.0 | 1.0 | 0.00 | 0.00 | 0.00 | 52 | 1012.1 |
| 20260508002003 | 61 | 236 | 0.0 | 2.0 | 0.00 | 0.00 | 0.00 | 51 | 1012.1 |
| 20260508001503 | 61 | 227 | 0.0 | 2.0 | 0.00 | 0.00 | 0.00 | 50 | 1012.0 |
| 20260508001003 | 61 | 182 | 0.0 | 2.0 | 0.00 | 0.00 | 0.00 | 50 | 1012.0 |
| 20260508000503 | 62 | 173 | 0.0 | 3.0 | 0.00 | 0.00 | 0.00 | 48 | 1012.1 |
| 20260508000004 | 62 | 224 | 0.0 | 3.0 | 0.00 | 0.00 | 0.00 | 49 | 1012.0 |
| 20260507235503 | 62 | 223 | 0.0 | 3.0 | 0.00 | 0.00 | 0.00 | 48 | 1012.2 |
| 20260507235003 | 62 | 221 | 0.0 | 3.0 | 0.00 | 0.00 | 0.00 | 48 | 1012.1 |
| 20260507234503 | 62 | 234 | 0.0 | 3.0 | 0.00 | 0.00 | 0.00 | 47 | 1012.2 |
| 20260507234009 | 62 | 238 | 0.0 | 3.0 | 0.00 | 0.00 | 0.00 | 48 | 1012.1 |
| 20260507233503 | 62 | 226 | 0.0 | 2.0 | 0.00 | 0.00 | 0.00 | 48 | 1012.1 |
| 20260507233004 | 62 | 230 | 0.0 | 2.0 | 0.00 | 0.00 | 0.00 | 47 | 1012.1 |
| 20260507232503 | 62 | 238 | 0.0 | 3.0 | 0.00 | 0.00 | 0.00 | 47 | 1012.2 |
| 20260507232003 | 62 | 236 | 0.0 | 3.0 | 0.00 | 0.00 | 0.00 | 46 | 1012.2 |
| 20260507231503 | 62 | 202 | 0.0 | 3.0 | 0.00 | 0.00 | 0.00 | 47 | 1012.2 |
| 20260507231004 | 62 | 215 | 0.0 | 3.0 | 0.00 | 0.00 | 0.00 | 48 | 1012.2 |
| 20260507230503 | 62 | 239 | 1.0 | 4.0 | 0.00 | 0.00 | 0.00 | 47 | 1012.3 |
| 20260507230004 | 62 | 232 | 1.0 | 5.0 | 0.00 | 0.00 | 0.00 | 45 | 1012.3 |
| 20260507225503 | 62 | 229 | 1.0 | 5.0 | 0.00 | 0.00 | 0.00 | 46 | 1012.3 |
| 20260507225003 | 63 | 233 | 1.0 | 4.0 | 0.00 | 0.00 | 0.00 | 46 | 1012.4 |
| 20260507224504 | 63 | 237 | 1.0 | 4.0 | 0.00 | 0.00 | 0.00 | 46 | 1012.4 |
| 20260507224003 | 63 | 231 | 1.0 | 4.0 | 0.00 | 0.00 | 0.00 | 45 | 1012.4 |
| 20260507223718 | 63 | 233 | 1.0 | 4.0 | 0.00 | 0.00 | 0.00 | 44 | 1012.5 |
| 20260507223217 | 63 | 243 | 1.0 | 4.0 | 0.00 | 0.00 | 0.00 | 45 | 1012.5 |
| 20260507222718 | 63 | 239 | 1.0 | 5.0 | 0.00 | 0.00 | 0.00 | 44 | 1012.5 |
| 20260507222004 | 63 | 227 | 1.0 | 5.0 | 0.00 | 0.00 | 0.00 | 43 | 1012.5 |
| 20260507221503 | 64 | 237 | 1.0 | 5.0 | 0.00 | 0.00 | 0.00 | 44 | 1012.5 |
| 20260507221009 | 64 | 242 | 1.0 | 6.0 | 0.00 | 0.00 | 0.00 | 44 | 1012.5 |
| 20260507220503 | 64 | 243 | 1.0 | 6.0 | 0.00 | 0.00 | 0.00 | 43 | 1012.4 |
| 20260507220003 | 64 | 235 | 1.0 | 4.0 | 0.00 | 0.00 | 0.00 | 44 | 1012.4 |
| 20260507215718 | 64 | 240 | 1.0 | 4.0 | 0.00 | 0.00 | 0.00 | 43 | 1012.5 |
| 20260507215003 | 64 | 256 | 0.0 | 4.0 | 0.00 | 0.00 | 0.00 | 43 | 1012.5 |
| 20260507214503 | 64 | 244 | 0.0 | 1.0 | 0.00 | 0.00 | 0.00 | 43 | 1012.4 |
| 20260507214003 | 64 | 230 | 1.0 | 8.0 | 0.00 | 0.00 | 0.00 | 43 | 1012.4 |
| 20260507213503 | 64 | 229 | 1.0 | 8.0 | 0.00 | 0.00 | 0.00 | 42 | 1012.4 |
| 20260507213003 | 64 | 216 | 0.0 | 3.0 | 0.00 | 0.00 | 0.00 | 43 | 1012.4 |
| 20260507212718 | 64 | 233 | 1.0 | 6.0 | 0.00 | 0.00 | 0.00 | 42 | 1012.4 |
| 20260507212003 | 64 | 208 | 1.0 | 6.0 | 0.00 | 0.00 | 0.00 | 42 | 1012.4 |
| 20260507211503 | 64 | 226 | 1.0 | 5.0 | 0.00 | 0.00 | 0.00 | 42 | 1012.4 |
| 20260507211003 | 64 | 229 | 1.0 | 5.0 | 0.00 | 0.00 | 0.00 | 41 | 1012.5 |
| 20260507210718 | 64 | 213 | 1.0 | 5.0 | 0.00 | 0.00 | 0.00 | 40 | 1012.5 |
| 20260507210219 | 64 | 228 | 1.0 | 4.0 | 0.00 | 0.00 | 0.00 | 42 | 1012.6 |
| 20260507205504 | 64 | 237 | 1.0 | 4.0 | 0.00 | 0.00 | 0.00 | 41 | 1012.6 |
| 20260507205003 | 64 | 237 | 0.0 | 4.0 | 0.00 | 0.00 | 0.00 | 42 | 1012.8 |
| 20260507204504 | 64 | 234 | 0.0 | 4.0 | 0.00 | 0.00 | 0.00 | 43 | 1012.9 |
| 20260507204003 | 64 | 246 | 1.0 | 5.0 | 0.00 | 0.00 | 0.00 | 41 | 1013.0 |
| 20260507203503 | 64 | 266 | 1.0 | 5.0 | 0.00 | 0.00 | 0.00 | 42 | 1013.1 |
| 20260507203219 | 64 | 279 | 0.0 | 4.0 | 0.00 | 0.00 | 0.00 | 40 | 1013.1 |
| 20260507202504 | 65 | 148 | 0.0 | 4.0 | 0.00 | 0.00 | 0.00 | 41 | 1013.2 |
| 20260507202004 | 64 | 133 | 1.0 | 4.0 | 0.00 | 0.00 | 0.00 | 41 | 1013.2 |
| 20260507201503 | 64 | 188 | 1.0 | 4.0 | 0.00 | 0.00 | 0.00 | 42 | 1013.2 |
| 20260507201218 | 64 | 249 | 1.0 | 4.0 | 0.00 | 0.00 | 0.00 | 40 | 1013.3 |
| 20260507200503 | 64 | 239 | 1.0 | 5.0 | 0.00 | 0.00 | 0.00 | 40 | 1013.3 |
| 20260507200003 | 64 | 256 | 1.0 | 4.0 | 0.00 | 0.00 | 0.00 | 41 | 1013.4 |
| 20260507195503 | 64 | 272 | 1.0 | 4.0 | 0.00 | 0.00 | 0.00 | 40 | 1013.5 |
| 20260507195218 | 64 | 282 | 1.0 | 4.0 | 0.00 | 0.00 | 0.00 | 40 | 1013.6 |
| 20260507194717 | 64 | 184 | 1.0 | 4.0 | 0.00 | 0.00 | 0.00 | 39 | 1013.6 |
| 20260507194003 | 64 | 187 | 1.0 | 7.0 | 0.00 | 0.00 | 0.00 | 40 | 1013.6 |
| 20260507193503 | 64 | 228 | 1.0 | 7.0 | 0.00 | 0.00 | 0.00 | 41 | 1013.6 |
| 20260507193003 | 64 | 240 | 1.0 | 5.0 | 0.00 | 0.00 | 0.00 | 40 | 1013.7 |
| 20260507192503 | 64 | 238 | 0.0 | 3.0 | 0.00 | 0.00 | 0.00 | 41 | 1013.8 |
| 20260507192003 | 64 | 237 | 0.0 | 2.0 | 0.00 | 0.00 | 0.00 | 40 | 1013.8 |
| 20260507191503 | 64 | 273 | 0.0 | 3.0 | 0.00 | 0.00 | 0.00 | 41 | 1013.9 |
| 20260507191003 | 64 | 284 | 1.0 | 3.0 | 0.00 | 0.00 | 0.00 | 41 | 1013.9 |
| 20260507190503 | 63 | 286 | 1.0 | 3.0 | 0.00 | 0.00 | 0.00 | 41 | 1013.9 |
| 20260507190005 | 63 | 270 | 1.0 | 3.0 | 0.00 | 0.00 | 0.00 | 39 | 1014.0 |
| 20260507185503 | 63 | 273 | 1.0 | 3.0 | 0.00 | 0.00 | 0.00 | 39 | 1014.1 |
| 20260507185003 | 64 | 271 | 1.0 | 4.0 | 0.00 | 0.00 | 0.00 | 38 | 1014.2 |
| 20260507184504 | 64 | 279 | 1.0 | 4.0 | 0.00 | 0.00 | 0.00 | 41 | 1014.2 |
| 20260507184003 | 64 | 282 | 1.0 | 3.0 | 0.00 | 0.00 | 0.00 | 41 | 1014.1 |
| 20260507183503 | 64 | 249 | 0.0 | 4.0 | 0.00 | 0.00 | 0.00 | 39 | 1014.2 |
| 20260507183003 | 64 | 212 | 0.0 | 4.0 | 0.00 | 0.00 | 0.00 | 40 | 1014.2 |
| 20260507182503 | 63 | 210 | 1.0 | 4.0 | 0.00 | 0.00 | 0.00 | 41 | 1014.3 |
| 20260507182003 | 63 | 245 | 1.0 | 7.0 | 0.00 | 0.00 | 0.00 | 40 | 1014.2 |
| 20260507181504 | 62 | 249 | 0.0 | 7.0 | 0.00 | 0.00 | 0.00 | 40 | 1014.3 |
| 20260507181003 | 63 | 235 | 1.0 | 5.0 | 0.00 | 0.00 | 0.00 | 40 | 1014.3 |
| 20260507180719 | 63 | 254 | 1.0 | 5.0 | 0.00 | 0.00 | 0.00 | 38 | 1014.5 |
| 20260507180003 | 63 | 35 | 1.0 | 4.0 | 0.00 | 0.00 | 0.00 | 42 | 1014.5 |
| 20260507175719 | 62 | 67 | 1.0 | 4.0 | 0.00 | 0.00 | 0.00 | 44 | 1014.5 |
| 20260507175003 | 62 | 272 | 1.0 | 3.0 | 0.00 | 0.00 | 0.00 | 41 | 1014.5 |
| 20260507174718 | 62 | 284 | 1.0 | 3.0 | 0.00 | 0.00 | 0.00 | 39 | 1014.6 |
| 20260507174003 | 62 | 316 | 1.0 | 3.0 | 0.00 | 0.00 | 0.00 | 43 | 1014.5 |
| 20260507173503 | 62 | 43 | 1.0 | 3.0 | 0.00 | 0.00 | 0.00 | 44 | 1014.6 |
| 20260507173004 | 61 | 141 | 1.0 | 5.0 | 0.00 | 0.00 | 0.00 | 42 | 1014.6 |
| 20260507172503 | 62 | 205 | 1.0 | 5.0 | 0.00 | 0.00 | 0.00 | 41 | 1014.6 |
| 20260507172003 | 62 | 258 | 1.0 | 6.0 | 0.00 | 0.00 | 0.00 | 41 | 1015.1 |
| 20260507171503 | 62 | 217 | 1.0 | 6.0 | 0.00 | 0.00 | 0.00 | 44 | 1015.1 |
| 20260507171003 | 62 | 178 | 1.0 | 4.0 | 0.00 | 0.00 | 0.00 | 43 | 1015.0 |
| 20260507170503 | 62 | 224 | 0.0 | 3.0 | 0.00 | 0.00 | 0.00 | 44 | 1015.0 |
| 20260507170003 | 61 | 241 | 1.0 | 3.0 | 0.00 | 0.00 | 0.00 | 44 | 1015.1 |
| 20260507165503 | 61 | 232 | 1.0 | 3.0 | 0.00 | 0.00 | 0.00 | 46 | 1015.1 |
| 20260507165003 | 61 | 224 | 1.0 | 5.0 | 0.00 | 0.00 | 0.00 | 41 | 1015.1 |
| 20260507164503 | 61 | 230 | 1.0 | 5.0 | 0.00 | 0.00 | 0.00 | 46 | 1015.2 |
| 20260507164003 | 61 | 194 | 1.0 | 5.0 | 0.00 | 0.00 | 0.00 | 44 | 1015.3 |
| 20260507163503 | 60 | 96 | 0.0 | 4.0 | 0.00 | 0.00 | 0.00 | 46 | 1015.3 |
| 20260507163003 | 60 | 324 | 0.0 | 1.0 | 0.00 | 0.00 | 0.00 | 44 | 1015.3 |
| 20260507162718 | 60 | 276 | 0.0 | 2.0 | 0.00 | 0.00 | 0.00 | 46 | 1015.3 |
| 20260507162003 | 59 | 291 | 0.0 | 2.0 | 0.00 | 0.00 | 0.00 | 44 | 1015.4 |
| 20260507161503 | 59 | 156 | 0.0 | 4.0 | 0.00 | 0.00 | 0.00 | 48 | 1015.6 |
| 20260507161217 | 58 | 157 | 0.0 | 4.0 | 0.00 | 0.00 | 0.00 | 49 | 1015.6 |
| 20260507160504 | 58 | 229 | 1.0 | 6.0 | 0.00 | 0.00 | 0.00 | 50 | 1015.7 |
| 20260507160217 | 57 | 235 | 1.0 | 6.0 | 0.00 | 0.00 | 0.00 | 51 | 1015.7 |
| 20260507155503 | 58 | 239 | 0.0 | 4.0 | 0.00 | 0.00 | 0.00 | 51 | 1015.8 |
| 20260507155003 | 57 | 254 | 0.0 | 4.0 | 0.00 | 0.00 | 0.00 | 51 | 1015.8 |
| 20260507154503 | 57 | 233 | 0.0 | 4.0 | 0.00 | 0.00 | 0.00 | 51 | 1015.8 |
| 20260507154217 | 57 | 228 | 0.0 | 4.0 | 0.00 | 0.00 | 0.00 | 50 | 1015.7 |
| 20260507153504 | 56 | 49 | 0.0 | 1.0 | 0.00 | 0.00 | 0.00 | 52 | 1015.8 |
| 20260507153003 | 56 | 186 | 0.0 | 2.0 | 0.00 | 0.00 | 0.00 | 55 | 1015.8 |
| 20260507152503 | 56 | 214 | 1.0 | 3.0 | 0.00 | 0.00 | 0.00 | 53 | 1015.8 |
| 20260507152003 | 56 | 217 | 1.0 | 3.0 | 0.00 | 0.00 | 0.00 | 53 | 1015.9 |
| 20260507151504 | 55 | 271 | 0.0 | 3.0 | 0.00 | 0.00 | 0.00 | 53 | 1015.9 |
| 20260507151003 | 55 | 265 | 0.0 | 2.0 | 0.00 | 0.00 | 0.00 | 54 | 1015.9 |
| 20260507150503 | 55 | 241 | 0.0 | 2.0 | 0.00 | 0.00 | 0.00 | 59 | 1015.9 |
| 20260507150004 | 54 | 230 | 0.0 | 2.0 | 0.00 | 0.00 | 0.00 | 57 | 1015.9 |
| 20260507145503 | 54 | 226 | 0.0 | 2.0 | 0.00 | 0.00 | 0.00 | 57 | 1015.9 |
| 20260507145003 | 54 | 225 | 0.0 | 2.0 | 0.00 | 0.00 | 0.00 | 59 | 1015.8 |
| 20260507144504 | 54 | 192 | 0.0 | 3.0 | 0.00 | 0.00 | 0.00 | 60 | 1015.7 |
| 20260507144003 | 53 | 203 | 1.0 | 3.0 | 0.00 | 0.00 | 0.00 | 60 | 1015.8 |
| 20260507143717 | 53 | 215 | 1.0 | 3.0 | 0.00 | 0.00 | 0.00 | 59 | 1015.8 |
| 20260507143003 | 52 | 206 | 0.0 | 3.0 | 0.00 | 0.00 | 0.00 | 61 | 1015.9 |
| 20260507142717 | 52 | 206 | 0.0 | 3.0 | 0.00 | 0.00 | 0.00 | 60 | 1015.8 |
| 20260507142003 | 52 | 239 | 0.0 | 1.0 | 0.00 | 0.00 | 0.00 | 61 | 1015.8 |
| 20260507141503 | 52 | 231 | 0.0 | 1.0 | 0.00 | 0.00 | 0.00 | 60 | 1015.8 |
| 20260507141218 | 52 | 231 | 0.0 | 2.0 | 0.00 | 0.00 | 0.00 | 59 | 1015.8 |
| 20260507140503 | 51 | 237 | 0.0 | 2.0 | 0.00 | 0.00 | 0.00 | 63 | 1015.7 |
| 20260507140004 | 50 | 231 | 0.0 | 2.0 | 0.00 | 0.00 | 0.00 | 64 | 1015.7 |
| 20260507135503 | 50 | 226 | 0.0 | 2.0 | 0.00 | 0.00 | 0.00 | 65 | 1015.6 |
| 20260507135003 | 50 | 235 | 0.0 | 2.0 | 0.00 | 0.00 | 0.00 | 66 | 1015.6 |
| 20260507134503 | 49 | 236 | 0.0 | 2.0 | 0.00 | 0.00 | 0.00 | 66 | 1015.7 |
| 20260507134003 | 49 | 234 | 0.0 | 2.0 | 0.00 | 0.00 | 0.00 | 70 | 1015.8 |
| 20260507133503 | 49 | 235 | 0.0 | 2.0 | 0.00 | 0.00 | 0.00 | 73 | 1015.7 |
| 20260507133218 | 49 | 235 | 0.0 | 2.0 | 0.00 | 0.00 | 0.00 | 75 | 1015.7 |
| 20260507132503 | 48 | 233 | 0.0 | 1.0 | 0.00 | 0.00 | 0.00 | 79 | 1015.7 |
| 20260507132003 | 48 | 0 | 0.0 | 0.0 | 0.00 | 0.00 | 0.00 | 81 | 1015.8 |
| 20260507131503 | 47 | 0 | 0.0 | 0.0 | 0.00 | 0.00 | 0.00 | 83 | 1015.8 |
| 20260507131003 | 47 | 0 | 0.0 | 0.0 | 0.00 | 0.00 | 0.00 | 85 | 1015.8 |
| 20260507130503 | 46 | 0 | 0.0 | 0.0 | 0.00 | 0.00 | 0.00 | 87 | 1015.8 |
| 20260507130004 | 46 | 0 | 0.0 | 0.0 | 0.00 | 0.00 | 0.00 | 88 | 1015.9 |
| 20260507125503 | 45 | 0 | 0.0 | 0.0 | 0.00 | 0.00 | 0.00 | 88 | 1015.9 |
| 20260507125003 | 45 | 0 | 0.0 | 0.0 | 0.00 | 0.00 | 0.00 | 89 | 1015.8 |
| 20260507124503 | 44 | 233 | 0.0 | 1.0 | 0.00 | 0.00 | 0.00 | 90 | 1015.8 |
| 20260507124003 | 44 | 233 | 0.0 | 1.0 | 0.00 | 0.00 | 0.00 | 91 | 1015.8 |
| 20260507123503 | 44 | 0 | 0.0 | 0.0 | 0.00 | 0.00 | 0.00 | 92 | 1015.9 |
| 20260507123003 | 43 | 0 | 0.0 | 0.0 | 0.00 | 0.00 | 0.00 | 93 | 1015.8 |
| 20260507122503 | 43 | 233 | 0.0 | 1.0 | 0.00 | 0.00 | 0.00 | 93 | 1015.7 |
| 20260507122004 | 42 | 252 | 0.0 | 1.0 | 0.00 | 0.00 | 0.00 | 93 | 1015.8 |
| 20260507121503 | 42 | 255 | 0.0 | 1.0 | 0.00 | 0.00 | 0.00 | 93 | 1015.7 |
| 20260507121003 | 42 | 0 | 0.0 | 0.0 | 0.00 | 0.00 | 0.00 | 93 | 1015.7 |
| 20260507120503 | 42 | 0 | 0.0 | 0.0 | 0.00 | 0.00 | 0.00 | 94 | 1015.6 |
| 20260507120004 | 41 | 0 | 0.0 | 0.0 | 0.00 | 0.00 | 0.00 | 94 | 1015.5 |
| 20260507115503 | 41 | 0 | 0.0 | 0.0 | 0.00 | 0.00 | 0.00 | 94 | 1015.5 |
| 20260507115217 | 40 | 0 | 0.0 | 0.0 | 0.00 | 0.00 | 0.00 | 94 | 1015.5 |
| 20260507114503 | 40 | 0 | 0.0 | 0.0 | 0.00 | 0.00 | 0.00 | 93 | 1015.4 |
| 20260507114003 | 39 | 0 | 0.0 | 0.0 | 0.00 | 0.00 | 0.00 | 93 | 1015.4 |
| 20260507113503 | 39 | 0 | 0.0 | 0.0 | 0.00 | 0.00 | 0.00 | 93 | 1015.4 |
| 20260507113004 | 39 | 0 | 0.0 | 0.0 | 0.00 | 0.00 | 0.00 | 93 | 1015.3 |
| 20260507112718 | 39 | 0 | 0.0 | 0.0 | 0.00 | 0.00 | 0.00 | 93 | 1015.3 |
| 20260507112003 | 38 | 0 | 0.0 | 0.0 | 0.00 | 0.00 | 0.00 | 93 | 1015.2 |
| 20260507111504 | 38 | 0 | 0.0 | 0.0 | 0.00 | 0.00 | 0.00 | 93 | 1015.1 |
| 20260507111003 | 38 | 0 | 0.0 | 0.0 | 0.00 | 0.00 | 0.00 | 93 | 1015.0 |
| 20260507110503 | 38 | 0 | 0.0 | 0.0 | 0.00 | 0.00 | 0.00 | 93 | 1015.1 |
| 20260507110217 | 38 | 0 | 0.0 | 0.0 | 0.00 | 0.00 | 0.00 | 93 | 1015.1 |
| 20260507105503 | 38 | 0 | 0.0 | 0.0 | 0.00 | 0.00 | 0.00 | 93 | 1015.1 |
| 20260507105003 | 38 | 0 | 0.0 | 0.0 | 0.00 | 0.00 | 0.00 | 93 | 1015.1 |
| 20260507104504 | 38 | 0 | 0.0 | 0.0 | 0.00 | 0.00 | 0.00 | 93 | 1015.1 |
| 20260507104003 | 38 | 0 | 0.0 | 0.0 | 0.00 | 0.00 | 0.00 | 93 | 1015.2 |
| 20260507103718 | 38 | 0 | 0.0 | 0.0 | 0.00 | 0.00 | 0.00 | 93 | 1015.1 |
| 20260507103003 | 38 | 0 | 0.0 | 0.0 | 0.00 | 0.00 | 0.00 | 93 | 1015.2 |
| 20260507102503 | 38 | 0 | 0.0 | 0.0 | 0.00 | 0.00 | 0.00 | 92 | 1015.2 |
| 20260507102216 | 38 | 0 | 0.0 | 0.0 | 0.00 | 0.00 | 0.00 | 92 | 1015.2 |
| 20260507101503 | 38 | 0 | 0.0 | 0.0 | 0.00 | 0.00 | 0.00 | 92 | 1015.1 |
| 20260507101003 | 38 | 0 | 0.0 | 0.0 | 0.00 | 0.00 | 0.00 | 92 | 1015.1 |
| 20260507100503 | 38 | 0 | 0.0 | 0.0 | 0.00 | 0.00 | 0.00 | 92 | 1015.2 |
| 20260507100004 | 38 | 0 | 0.0 | 0.0 | 0.00 | 0.00 | 0.00 | 92 | 1015.3 |
| 20260507095503 | 38 | 0 | 0.0 | 0.0 | 0.00 | 0.00 | 0.00 | 92 | 1015.2 |
| 20260507095003 | 38 | 0 | 0.0 | 0.0 | 0.00 | 0.00 | 0.00 | 92 | 1015.4 |
| 20260507094718 | 38 | 0 | 0.0 | 0.0 | 0.00 | 0.00 | 0.00 | 92 | 1015.4 |
| 20260507094003 | 38 | 0 | 0.0 | 0.0 | 0.00 | 0.00 | 0.00 | 91 | 1015.3 |
| 20260507093717 | 38 | 0 | 0.0 | 0.0 | 0.00 | 0.00 | 0.00 | 91 | 1015.3 |
| 20260507093003 | 39 | 0 | 0.0 | 0.0 | 0.00 | 0.00 | 0.00 | 91 | 1015.3 |
| 20260507092717 | 39 | 0 | 0.0 | 0.0 | 0.00 | 0.00 | 0.00 | 91 | 1015.3 |
| 20260507092003 | 39 | 0 | 0.0 | 0.0 | 0.00 | 0.00 | 0.00 | 92 | 1015.3 |
| 20260507091503 | 39 | 0 | 0.0 | 0.0 | 0.00 | 0.00 | 0.00 | 92 | 1015.2 |
| 20260507091003 | 39 | 0 | 0.0 | 0.0 | 0.00 | 0.00 | 0.00 | 91 | 1015.2 |
| 20260507090503 | 39 | 0 | 0.0 | 0.0 | 0.00 | 0.00 | 0.00 | 91 | 1015.2 |
| 20260507090004 | 39 | 0 | 0.0 | 0.0 | 0.00 | 0.00 | 0.00 | 91 | 1015.1 |
| 20260507085503 | 39 | 0 | 0.0 | 0.0 | 0.00 | 0.00 | 0.00 | 91 | 1015.1 |
| 20260507085003 | 39 | 0 | 0.0 | 0.0 | 0.00 | 0.00 | 0.00 | 91 | 1015.1 |
| 20260507084503 | 39 | 0 | 0.0 | 0.0 | 0.00 | 0.00 | 0.00 | 91 | 1015.0 |
| 20260507084003 | 40 | 0 | 0.0 | 0.0 | 0.00 | 0.00 | 0.00 | 90 | 1015.0 |
| 20260507083503 | 40 | 0 | 0.0 | 0.0 | 0.00 | 0.00 | 0.00 | 90 | 1015.0 |
| 20260507083218 | 40 | 0 | 0.0 | 0.0 | 0.00 | 0.00 | 0.00 | 90 | 1015.0 |
| 20260507082503 | 40 | 0 | 0.0 | 0.0 | 0.00 | 0.00 | 0.00 | 90 | 1015.1 |
| 20260507082218 | 40 | 0 | 0.0 | 0.0 | 0.00 | 0.00 | 0.00 | 90 | 1015.1 |
| 20260507081503 | 40 | 0 | 0.0 | 0.0 | 0.00 | 0.00 | 0.00 | 90 | 1015.2 |
| 20260507081004 | 40 | 0 | 0.0 | 0.0 | 0.00 | 0.00 | 0.00 | 90 | 1015.1 |
| 20260507080503 | 40 | 0 | 0.0 | 0.0 | 0.00 | 0.00 | 0.00 | 90 | 1015.1 |
| 20260507080218 | 40 | 0 | 0.0 | 0.0 | 0.00 | 0.00 | 0.00 | 90 | 1015.0 |
| 20260507075503 | 41 | 0 | 0.0 | 0.0 | 0.00 | 0.00 | 0.00 | 89 | 1015.1 |
| 20260507075003 | 41 | 0 | 0.0 | 0.0 | 0.00 | 0.00 | 0.00 | 89 | 1015.1 |
| 20260507074503 | 41 | 0 | 0.0 | 0.0 | 0.00 | 0.00 | 0.00 | 89 | 1015.1 |
| 20260507074003 | 41 | 0 | 0.0 | 0.0 | 0.00 | 0.00 | 0.00 | 88 | 1015.0 |
| 20260507073503 | 41 | 0 | 0.0 | 0.0 | 0.00 | 0.00 | 0.00 | 88 | 1015.1 |
| 20260507073004 | 41 | 0 | 0.0 | 0.0 | 0.00 | 0.00 | 0.00 | 88 | 1015.1 |
| 20260507072503 | 41 | 0 | 0.0 | 0.0 | 0.00 | 0.00 | 0.00 | 88 | 1015.0 |
| 20260507072003 | 42 | 0 | 0.0 | 0.0 | 0.00 | 0.00 | 0.00 | 88 | 1015.1 |
| 20260507071718 | 42 | 0 | 0.0 | 0.0 | 0.00 | 0.00 | 0.00 | 87 | 1015.1 |
| 20260507071003 | 42 | 0 | 0.0 | 0.0 | 0.00 | 0.00 | 0.00 | 87 | 1015.1 |
| 20260507070504 | 42 | 0 | 0.0 | 0.0 | 0.00 | 0.00 | 0.00 | 87 | 1015.1 |
| 20260507070007 | 42 | 0 | 0.0 | 0.0 | 0.00 | 0.00 | 0.00 | 87 | 1015.2 |
| 20260507065504 | 42 | 0 | 0.0 | 0.0 | 0.00 | 0.00 | 0.00 | 86 | 1015.2 |
| 20260507065003 | 42 | 0 | 0.0 | 0.0 | 0.00 | 0.00 | 0.00 | 86 | 1015.2 |
| 20260507064504 | 43 | 0 | 0.0 | 0.0 | 0.00 | 0.00 | 0.00 | 86 | 1015.3 |
| 20260507064003 | 43 | 0 | 0.0 | 0.0 | 0.00 | 0.00 | 0.00 | 85 | 1015.3 |
| 20260507063503 | 43 | 0 | 0.0 | 0.0 | 0.00 | 0.00 | 0.00 | 85 | 1015.3 |
| 20260507063003 | 43 | 0 | 0.0 | 0.0 | 0.00 | 0.00 | 0.00 | 85 | 1015.4 |
| 20260507062503 | 43 | 0 | 0.0 | 0.0 | 0.00 | 0.00 | 0.00 | 84 | 1015.3 |
| 20260507062003 | 44 | 0 | 0.0 | 0.0 | 0.00 | 0.00 | 0.00 | 84 | 1015.4 |
| 20260507061503 | 44 | 0 | 0.0 | 0.0 | 0.00 | 0.00 | 0.00 | 84 | 1015.5 |
| 20260507061217 | 44 | 0 | 0.0 | 0.0 | 0.00 | 0.00 | 0.00 | 84 | 1015.5 |
| 20260507060503 | 44 | 0 | 0.0 | 0.0 | 0.00 | 0.00 | 0.00 | 83 | 1015.5 |